Location: Unspecified
(0.0000°N, 0.0000°E)
Time: 14:52:11
(UTC+00:00)

Altair - Pass Details

Date: 30 October 2021
Orbit: 1502 x 1682 km, 47.2° (Epoch: 26 November)

Event Time Altitude Azimuth Distance (km) Brightness Sun altitude
Rises 21:28:19 0° 216° (SW) 4,702 10.5 -53.7°
Reaches altitude 10° 21:31:25 10° 215° (SW) 3,699 9.8 -54.4°
Enters shadow 21:33:39 20° 213° (SSW) 2,993 9.2 -54.9°
Maximum altitude 21:40:42 77° 129° (SE) 1,540 - -56.5°
Drops below altitude 10° 21:49:49 10° 44° (NE) 3,644 - -58.5°
Sets 21:52:50 0° 43° (NE) 4,630 - -59.2°
